BRISAT (41591 NORAD) Tracking and Keplerian Element Data

This shows tracking and keplerian element data for the satellite.

Feedback or suggestion? Click here.




ElementValue
Catalog41591
NameBRISAT
Epoch Orbit1387
Epoch Day91.88035339
Epoch Year2020
RAAN220.006
Inclination0.0182
Eccentricity0.0002172
Argument of Perigee140.1358
Mean Anonmoly296.981
Mean Motion1.00271138
Decay Rate-2E-06
L11 41591U 16039A 20091.88035339 -.00000200 00000-0 00000-0 0 9993
L22 41591 0.0182 220.0060 0002172 140.1358 296.9810 1.00271138 13874

Live tracking and technical data element details for BRISAT (NORAD 41591). BRISAT can be tracked NOW for your location showing map with azimuth and elevation plus other details from your city location.

Track the satellite on the map from your city or location and see movement details for azimuth, elevation, latitude, longitude, range, height, and movement on the map or in text.







IsCatalogInMostPopularTable: catalog: 41591, numindb: 352
Update: records affected: 1



GetName: 41591 BRISAT

Hit Count: updated at: Fri, 03 Apr 2020 07:17:34 GMT